Location: Westminster
(33.3626°N, 96.4619°W)
Time: 14:12:12
(UTC+00:00)

Cosmos 1763 Rocket - Pass Details

Date: 07 July 2022
Orbit: 732 x 780 km, 74.0° (Epoch: 07 August)

Event Time Altitude Azimuth Distance (km) Brightness Sun altitude
Exits shadow 07:41:37 22° 310° (NW) 1,618 5.3 -31.6°
Drops below altitude 10° 07:44:54 10° 348° (NNW) 2,319 6.6 -31.3°
Sets 07:47:47 0° 2° (N) 3,256 7.8 -31.1°
